CAPE
3031 2932 2843 2364 2084 1601 1675 1217 816 675 212 38 54 833 1028 1041 818 962 1356 1355 1012 592
3531 3470 3090 3124 2815 2429 1839 1422 1246 1236 1022 674 534 827 1100 1303 1103 788 874 1398 1374 1031
3389 3176 2921 2842 2607 2327 1260 1684 1917 2084 1840 1454 1134 1302 1406 1574 1398 1161 1123 1036 1247 1231
3070 2824 2778 2679 2471 1965 1628 2302 2158 2163 2098 2378 2456 2107 1700 1713 1624 1539 1513 1376 1128 1178
2384 2157 2159 2281 1553 1764 1704 581 489 632 648 1212 2043 1768 1979 1790 1806 1495 1456 1353 1188 1086
1651 1414 739 501 526 613 925 900 680 605 407 356 658 809 1723 1922 1719 1555 1456 1331 1357 1219
616 598 489 456 454 513 600 607 787 702 658 504 505 444 506 326 874 1437 1406 1451 1230 956
487 529 536 412 476 628 442 397 351 363 313 454 416 244 101 43 240 427 857 1023 978 1120
65 85 105 137 107 114 138 209 250 235 284 306 148 142 163 50 6 11 221 433 478 956
68 101 148 257 328 364 313 270 275 313 391 333 329 381 93 56 43 1 19 118 311 450
300 234 277 352 239 66 69 52 56 57 65 165 225 271 216 67 31 13 28 125 338 423
309 78 19 22 31 47 51 30 4 0 0 47 109 208 235 167 44 14 0 15 51 156
44 87 48 46 51 36 34 39 50 39 44 51 39 43 116 126 74 20 0 0 0 0
0 14 19 12 7 9 8 10 16 16 10 29 39 68 107 57 22 0 0 0 0 0
CIN
-16 -24 -21 -15 -27 -55 -34 -20 -49 -54 -266 -425 -184 -69 -91 -44 -65 -79 -39 -24 -31 -49
-6 -9 -9 -9 -15 -9 -19 -13 -34 -35 -51 -56 -123 -77 -76 -41 -50 -66 -50 -30 -25 -29
-6 -14 -18 -15 -8 -8 -63 -20 -12 -6 -6 -48 -66 -35 -42 -37 -45 -41 -33 -48 -35 -35
-16 -12 -24 -16 -9 -6 -27 -6 -12 -12 -18 -14 -8 -5 -17 -16 -18 -15 -17 -27 -20 -15
-22 -11 -15 -7 -20 -27 -22 -118 -153 -128 -118 -54 -10 -2 -17 -7 -17 -13 -17 -23 -17 -23
-31 -32 -92 -163 -141 -107 -62 -45 -57 -68 -106 -116 -36 -47 -23 -7 -9 -23 -23 -19 -23 -16
-96 -174 -168 -181 -151 -121 -95 -69 -28 -28 -34 -50 -37 -34 -29 -56 -38 -15 -10 -9 -9 -24
-150 -137 -125 -150 -140 -106 -121 -105 -82 -60 -53 -24 -26 -79 -114 -149 -103 -42 -10 -10 -15 -17
-265 -234 -217 -198 -205 -194 -158 -106 -74 -61 -44 -32 -91 -99 -62 -123 -215 -239 -93 -13 -13 -9
-212 -185 -151 -111 -74 -42 -38 -41 -53 -49 -29 -22 -14 -4 -66 -93 -138 -28 -228 -102 -22 -7
-60 -55 -41 -17 -22 -67 -90 -67 -83 -145 -107 -66 -50 -16 -9 -50 -128 -203 -220 -101 -17 -4
-35 -130 -66 -38 -36 -32 -27 -23 -3 -0 -0 -143 -89 -43 -15 -13 -71 -134 -0 -211 -142 -60
-124 -88 -123 -29 -20 -19 -18 -7 -6 -4 -6 -6 -7 -118 -62 -35 -58 -13 -0 -0 -0 -0
-0 -38 -22 -31 -26 -30 -20 -19 -14 -15 -17 -6 -9 -99 -71 -125 -15 -0 -0 -0 -0 -0
Wind_Speed
19 16 18 17 15 17 21 25 26 21 17 nan nan 5 9 11 7 7 5 10 8 5
18 19 18 19 20 18 21 25 25 22 21 21 17 15 9 11 11 12 10 7 9 9
20 20 20 20 21 24 22 23 26 22 18 15 16 16 13 14 14 10 13 13 11 7
24 23 23 22 24 25 23 25 24 23 20 17 15 14 14 13 10 11 12 10 10 9
26 26 25 25 27 27 29 29 29 27 25 22 18 15 14 13 12 12 11 10 9 10
30 30 32 33 34 34 34 34 31 30 27 25 24 21 19 16 15 15 15 14 14 7
36 37 36 36 36 36 36 36 34 32 29 27 26 28 25 21 19 20 20 19 20 16
41 40 39 37 36 36 36 35 35 34 32 29 29 30 30 nan 28 24 23 23 23 22
nan nan 43 42 41 40 39 39 38 36 36 34 33 28 28 nan nan nan 25 25 27 28
nan 43 44 44 44 44 43 43 40 39 40 38 37 32 nan nan nan nan nan 29 30 32
45 45 46 48 49 nan nan nan nan nan nan 38 37 34 32 nan nan nan nan 32 32 33
51 nan nan nan nan nan nan nan nan nan nan nan 35 34 33 37 nan nan nan nan nan 34
nan nan nan nan nan nan nan nan nan nan nan nan nan nan 36 41 nan nan nan nan nan nan
nan nan nan nan nan nan nan nan nan nan nan nan nan nan 44 nan nan nan nan nan nan nan
Wind_Direction
346 343 342 343 342 337 334 345 357 9 18 nan nan 300 355 342 10 322 334 324 342 357
323 324 323 316 313 313 308 319 340 352 3 12 9 24 9 337 349 331 315 316 334 332
315 314 313 308 313 310 307 307 317 332 343 346 354 14 357 3 360 341 326 336 334 347
303 307 305 308 305 301 305 309 308 313 313 318 330 337 336 338 334 345 337 300 306 308
297 293 294 294 291 299 297 295 296 293 293 299 310 310 310 305 308 307 314 334 291 300
295 283 283 277 277 276 278 281 283 285 286 286 287 286 289 291 293 298 298 291 306 310
287 285 283 280 275 274 275 273 273 274 273 275 278 281 279 277 275 279 280 282 284 295
283 282 280 280 281 281 278 278 279 279 279 280 275 270 269 nan 268 260 263 269 272 271
nan nan 289 287 288 287 286 285 283 282 283 281 276 270 264 nan nan nan 267 269 268 266
nan 291 291 289 285 282 280 279 279 280 281 280 279 275 nan nan nan nan nan 274 273 268
287 286 283 281 280 nan nan nan nan nan nan 272 271 273 268 nan nan nan nan 274 277 274
283 nan nan nan nan nan nan nan nan nan nan nan 265 268 269 265 nan nan nan nan nan 277
nan nan nan nan nan nan nan nan nan nan nan nan nan nan 269 269 nan nan nan nan nan nan
nan nan nan nan nan nan nan nan nan nan nan nan nan nan 277 nan nan nan nan nan nan nan